User: anonymous   Login
Location: Mercogliano
(40.9167°N, 14.7333°E)
Time: 11:37:39
(UTC+00:00)
Language:

Cosmos 2026 Rocket - Orbit

View from above orbital plane
View from above orbital plane
View from above satellite
View from above satellite

Ground track
Ground track

The orbit data is extracted from the following two-line orbital elements,

1 20046U 89042B   20329.60179058 -.00000014 +00000-0 -28970-4 0  9994
2 20046 082.9372 086.7938 0042835 144.1772 216.2273 13.78204110582100
Epoch (UTC): 24 November 2020 14:26:34
Eccentricity: 0.0042835
inclination: 82.9372°
perigee height: 939 km
apogee height: 1002 km
right ascension of ascending node: 86.7938°
argument of perigee: 144.1772°
revolutions per day: 13.78204110
mean anomaly at epoch: 216.2273°
orbit number at epoch: 58210

The dashed part of the orbit path shows where the satellite is in the earth's shadow,  

DLR